Weather History for KOTH - July, 2014

Change the Weather History Date:

Saturday, July 5, 2014

  Actual Average Record
Temperature  
Mean Temperature 62 °F 58 °F  
Max Temperature 70 °F 64 °F 74 °F (1913)
Min Temperature 54 °F 52 °F 42 °F (1914)
Degree Days  
Heating Degree Days 3 7  
Month to date heating degree days 15 35  
Since 1 June heating degree days 212 302  
Since 1 July heating degree days 15 35  
Cooling Degree Days 0 0  
Month to date cooling degree days 0 0  
Year to date cooling degree days 12 0  
Since 1 June cooling degree days 0 0  
Growing Degree Days 11 (Base 50)    
Moisture  
Dew Point 57 °F    
Average Humidity 86    
Maximum Humidity 100    
Minimum Humidity 68    
Precipitation  
Precipitation 0.00 in 0.02 in 0.78 in (1948)
Month to date precipitation 0.00 0.11  
Year to date precipitation 22.43 36.23  
Sea Level Pressure  
Sea Level Pressure 30.12 in    
Wind  
Wind Speed 6 mph (North)    
Max Wind Speed 14 mph    
Max Gust Speed 18 mph    
Visibility 10 miles    
Events      
T = Trace of Precipitation, MM = Missing Value Source: NWS Daily Summary

Daily Weather History Graph

Daily Weather History Graph

Search for Another Location

Airport or City:

Trip Planner

Search our weather history database for the weather conditions in past years. The results will help you decide how hot, cold, wet, or windy it might be!

Date:

Astronomy

Jul. 05, 2014 Rise Set
Actual Time 5:42 AM PDT 9:00 PM PDT
Civil Twilight 5:07 AM PDT 9:35 PM PDT
Nautical Twilight 4:21 AM PDT 10:21 PM PDT
Astronomical Twilight 3:24 AM PDT 11:17 PM PDT
Moon 1:57 PM PDT (7/5) 12:42 AM PDT (7/5)
Length of Visible Light 16h 28m
Length of Day
15h 17m
First Quarter, 53% of the Moon is Illuminated
Jul 5
First Quarter
Jul 12
Full
Jul 18
Last Quarter
Jul 26
New
Aug 3
First Quarter

Hourly Weather History & Observations

Time (PDT) Temp. Dew Point Humidity Pressure Visibility Wind Dir Wind Speed Gust Speed Precip Events Conditions
12:15 AM 57.2 °F 57.2 °F 100% 30.10 in 10.0 mi NNE 3.5 mph - N/A   Clear
12:35 AM 55.4 °F 55.4 °F 100% 30.10 in 10.0 mi NNE 3.5 mph - N/A   Clear
12:55 AM 55.4 °F 55.4 °F 100% 30.10 in 10.0 mi Calm Calm - N/A   Clear
1:35 AM 53.6 °F 53.6 °F 100% 30.10 in 10.0 mi SE 3.5 mph - N/A   Clear
1:55 AM 53.6 °F 53.6 °F 100% 30.10 in 10.0 mi SSE 3.5 mph - N/A   Clear
2:15 AM 53.6 °F 53.6 °F 100% 30.10 in 10.0 mi SE 4.6 mph - N/A   Mostly Cloudy
2:35 AM 53.6 °F 53.6 °F 100% 30.10 in 10.0 mi SE 3.5 mph - N/A   Mostly Cloudy
2:55 AM 53.6 °F 53.6 °F 100% 30.10 in 10.0 mi SE 3.5 mph - N/A   Partly Cloudy
3:15 AM 53.6 °F 53.6 °F 100% 30.10 in 8.0 mi SE 3.5 mph - N/A   Clear
3:35 AM 53.6 °F 53.6 °F 100% 30.10 in 10.0 mi SE 3.5 mph - N/A   Mostly Cloudy
3:55 AM 53.6 °F 53.6 °F 100% 30.10 in 7.0 mi Calm Calm - N/A   Overcast
4:15 AM 53.6 °F 53.6 °F 100% 30.10 in 10.0 mi SSE 3.5 mph - N/A   Overcast
4:35 AM 53.6 °F 53.6 °F 100% 30.10 in 10.0 mi Calm Calm - N/A   Overcast
4:55 AM 53.6 °F 53.6 °F 100% 30.10 in 10.0 mi SSE 3.5 mph - N/A   Overcast
5:15 AM 53.6 °F 53.6 °F 100% 30.10 in 9.0 mi SE 4.6 mph - N/A   Overcast
5:35 AM 53.6 °F 53.6 °F 100% 30.10 in 10.0 mi SE 5.8 mph - N/A   Overcast
5:55 AM 53.6 °F 53.6 °F 100% 30.10 in 10.0 mi SE 4.6 mph - N/A   Overcast
6:15 AM 53.6 °F 53.6 °F 100% 30.11 in 10.0 mi SSE 4.6 mph - N/A   Overcast
6:35 AM 53.6 °F 53.6 °F 100% 30.11 in 10.0 mi SSE 4.6 mph - N/A   Mostly Cloudy
6:55 AM 55.4 °F 53.6 °F 94% 30.11 in 10.0 mi SE 4.6 mph - N/A   Scattered Clouds
7:15 AM 55.4 °F 55.4 °F 100% 30.11 in 10.0 mi SE 5.8 mph - N/A   Clear
7:35 AM 55.4 °F 55.4 °F 100% 30.11 in 10.0 mi SE 3.5 mph - N/A   Clear
7:55 AM 57.2 °F 55.4 °F 94% 30.12 in 10.0 mi Calm Calm - N/A   Clear
8:15 AM 60.8 °F 55.4 °F 82% 30.12 in 10.0 mi Calm Calm - N/A   Clear
8:35 AM 60.8 °F 55.4 °F 82% 30.12 in 10.0 mi Calm Calm - N/A   Clear
8:55 AM 62.6 °F 55.4 °F 77% 30.12 in 10.0 mi Calm Calm - N/A   Clear
9:15 AM 64.4 °F 57.2 °F 77% 30.12 in 10.0 mi North 5.8 mph - N/A   Clear
9:35 AM 64.4 °F 57.2 °F 77% 30.12 in 10.0 mi NW 8.1 mph - N/A   Clear
9:55 AM 64.4 °F 57.2 °F 77% 30.12 in 10.0 mi NW 5.8 mph - N/A   Clear
10:15 AM 64.4 °F 57.2 °F 77% 30.12 in 10.0 mi NNW 9.2 mph - N/A   Clear
10:35 AM 66.2 °F 57.2 °F 73% 30.13 in 10.0 mi NNW 10.4 mph - N/A   Clear
10:55 AM 66.2 °F 57.2 °F 73% 30.12 in 10.0 mi NNW 9.2 mph - N/A   Clear
11:15 AM 66.2 °F 57.2 °F 73% 30.12 in 10.0 mi NNW 10.4 mph - N/A   Clear
11:35 AM 66.2 °F 57.2 °F 73% 30.12 in 10.0 mi NNW 11.5 mph - N/A   Clear
11:55 AM 66.2 °F 57.2 °F 73% 30.13 in 10.0 mi North 11.5 mph - N/A   Clear
12:15 PM 68.0 °F 57.2 °F 68% 30.12 in 10.0 mi NNW 12.7 mph 17.3 mph N/A   Clear
12:35 PM 66.2 °F 57.2 °F 73% 30.12 in 10.0 mi NNW 13.8 mph 19.6 mph N/A   Clear
1:15 PM 68.0 °F 57.2 °F 68% 30.12 in 10.0 mi North 13.8 mph - N/A   Clear
1:35 PM 69.8 °F 57.2 °F 64% 30.13 in 10.0 mi NNW 13.8 mph - N/A   Clear
1:55 PM 68.0 °F 57.2 °F 68% 30.13 in 10.0 mi NNW 13.8 mph 18.4 mph N/A   Clear
2:15 PM 68.0 °F 57.2 °F 68% 30.12 in 10.0 mi NNW 12.7 mph - N/A   Clear
2:35 PM 69.8 °F 57.2 °F 64% 30.13 in 10.0 mi NNW 10.4 mph - N/A   Clear
2:55 PM 68.0 °F 57.2 °F 68% 30.13 in 10.0 mi NNW 11.5 mph - N/A   Clear
3:15 PM 68.0 °F 57.2 °F 68% 30.13 in 10.0 mi NNW 12.7 mph 18.4 mph N/A   Clear
3:35 PM 68.0 °F 57.2 °F 68% 30.13 in 10.0 mi NNW 10.4 mph 17.3 mph N/A   Clear
3:55 PM 68.0 °F 57.2 °F 68% 30.14 in 10.0 mi North 11.5 mph - N/A   Clear
4:15 PM 68.0 °F 57.2 °F 68% 30.13 in 10.0 mi NNW 12.7 mph - N/A   Clear
4:35 PM 68.0 °F 57.2 °F 68% 30.13 in 10.0 mi NNW 11.5 mph - N/A   Clear
4:55 PM 68.0 °F 57.2 °F 68% 30.13 in 10.0 mi NNW 12.7 mph - N/A   Clear
5:15 PM 66.2 °F 57.2 °F 73% 30.13 in 10.0 mi NNW 13.8 mph - N/A   Clear
5:35 PM 66.2 °F 57.2 °F 73% 30.13 in 10.0 mi NNW 12.7 mph - N/A   Clear
5:55 PM 66.2 °F 59.0 °F 78% 30.13 in 10.0 mi NNW 11.5 mph - N/A   Clear
6:15 PM 66.2 °F 59.0 °F 78% 30.13 in 10.0 mi NNW 11.5 mph - N/A   Clear
6:35 PM 66.2 °F 59.0 °F 78% 30.13 in 10.0 mi NNW 10.4 mph - N/A   Clear
6:55 PM 66.2 °F 57.2 °F 73% 30.13 in 10.0 mi NNW 11.5 mph - N/A   Clear
7:15 PM 66.2 °F 59.0 °F 78% 30.13 in 10.0 mi NNW 11.5 mph - N/A   Clear
7:35 PM 64.4 °F 59.0 °F 83% 30.13 in 10.0 mi North 10.4 mph - N/A   Clear
7:55 PM 64.4 °F 60.8 °F 88% 30.14 in 10.0 mi North 8.1 mph - N/A   Clear
8:15 PM 64.4 °F 59.0 °F 83% 30.14 in 10.0 mi NNW 8.1 mph - N/A   Clear
8:35 PM 62.6 °F 60.8 °F 94% 30.14 in 10.0 mi North 5.8 mph - N/A   Clear
8:55 PM 62.6 °F 60.8 °F 94% 30.14 in 10.0 mi North 3.5 mph - N/A   Clear
9:15 PM 60.8 °F 60.8 °F 100% 30.14 in 10.0 mi Calm Calm - N/A   Clear
9:35 PM 60.8 °F 60.8 °F 100% 30.14 in 10.0 mi NW 4.6 mph - N/A   Clear
9:55 PM 60.8 °F 60.8 °F 100% 30.15 in 10.0 mi NW 3.5 mph - N/A   Clear
10:15 PM 60.8 °F 60.8 °F 100% 30.15 in 10.0 mi NNW 3.5 mph - N/A   Clear
10:35 PM 60.8 °F 60.8 °F 100% 30.15 in 10.0 mi Calm Calm - N/A   Clear
10:55 PM 59.0 °F 57.2 °F 94% 30.16 in 10.0 mi Calm Calm - N/A   Clear
11:15 PM 59.0 °F 59.0 °F 100% 30.16 in 10.0 mi Calm Calm - N/A   Clear
11:35 PM 59.0 °F 57.2 °F 94% 30.16 in 10.0 mi Calm Calm - N/A   Clear
11:55 PM 59.0 °F 59.0 °F 100% 30.16 in 10.0 mi NNE 3.5 mph - N/A   Clear